�������l�o���
Date,Time,MP-1(��Sv/h),MP-2(��Sv/h),MP-3(��Sv/h),MP-4(��Sv/h),MP-5(��Sv/h),MP-6(��Sv/h),MP-7(��Sv/h),MP-8(��Sv/h),����,����(m/s),���J
2019/03/17,00:00,0.759,1.120,0.770,1.423,1.020,0.433,0.772,0.734,���k��,7.4,��
2019/03/17,00:10,0.759,1.123,0.769,1.426,1.020,0.434,0.772,0.735,���k��,7.3,��
2019/03/17,00:20,0.760,1.120,0.768,1.425,1.020,0.434,0.773,0.734,���k��,7.1,��
2019/03/17,00:30,0.760,1.120,0.769,1.427,1.020,0.434,0.774,0.735,��,6.1,��
2019/03/17,00:40,0.761,1.121,0.769,1.425,1.020,0.435,0.772,0.733,��,4.9,��
2019/03/17,00:50,0.760,1.120,0.769,1.425,1.019,0.435,0.773,0.732,���k��,4.9,��
2019/03/17,01:00,0.760,1.121,0.769,1.426,1.020,0.436,0.773,0.735,���k��,4.3,��
2019/03/17,01:10,0.760,1.121,0.769,1.426,1.018,0.436,0.773,0.736,��,4.4,��
2019/03/17,01:20,0.759,1.120,0.770,1.425,1.019,0.435,0.772,0.733,���k��,5.1,��
2019/03/17,01:30,0.760,1.120,0.768,1.426,1.020,0.434,0.773,0.733,���k��,5.9,��
2019/03/17,01:40,0.761,1.122,0.768,1.426,1.019,0.434,0.772,0.734,��,5.6,��
2019/03/17,01:50,0.762,1.121,0.771,1.425,1.020,0.435,0.774,0.731,��,5.1,��
2019/03/17,02:00,0.758,1.122,0.768,1.427,1.019,0.435,0.772,0.734,��,5.9,��
2019/03/17,02:10,0.759,1.121,0.769,1.426,1.020,0.437,0.773,0.733,��,5.2,��
2019/03/17,02:20,0.758,1.121,0.769,1.426,1.019,0.433,0.772,0.735,��,5.5,��
2019/03/17,02:30,0.758,1.118,0.770,1.426,1.020,0.434,0.774,0.733,��,5.6,��
2019/03/17,02:40,0.761,1.121,0.768,1.427,1.018,0.433,0.772,0.734,��,5.7,��
2019/03/17,02:50,0.760,1.121,0.770,1.423,1.018,0.436,0.772,0.733,��,5.0,��
2019/03/17,03:00,0.760,1.121,0.767,1.427,1.021,0.435,0.773,0.734,��,4.9,��
2019/03/17,03:10,0.762,1.123,0.768,1.425,1.020,0.433,0.773,0.734,��,4.4,��
2019/03/17,03:20,0.758,1.121,0.769,1.423,1.019,0.435,0.772,0.734,��,3.6,��
2019/03/17,03:30,0.760,1.122,0.769,1.426,1.019,0.434,0.773,0.733,��,3.8,��
2019/03/17,03:40,0.759,1.120,0.768,1.426,1.019,0.434,0.773,0.735,��,3.3,��
2019/03/17,03:50,0.759,1.119,0.769,1.422,1.019,0.434,0.769,0.734,��,2.8,��
2019/03/17,04:00,0.758,1.119,0.770,1.426,1.020,0.433,0.773,0.733,��,2.8,��
2019/03/17,04:10,0.759,1.119,0.770,1.426,1.017,0.434,0.773,0.733,���k��,2.6,��
2019/03/17,04:20,0.758,1.121,0.768,1.424,1.018,0.434,0.771,0.734,��,2.8,��
2019/03/17,04:30,0.758,1.121,0.767,1.428,1.018,0.433,0.771,0.733,��,3.8,��
2019/03/17,04:40,0.759,1.120,0.767,1.425,1.018,0.434,0.773,0.733,��,4.4,��
2019/03/17,04:50,0.760,1.120,0.767,1.425,1.017,0.434,0.772,0.731,��,5.0,��
2019/03/17,05:00,0.760,1.121,0.769,1.422,1.019,0.432,0.773,0.732,��,4.3,��
2019/03/17,05:10,0.760,1.118,0.767,1.428,1.019,0.433,0.771,0.734,��,4.0,��
2019/03/17,05:20,0.759,1.119,0.768,1.424,1.018,0.435,0.771,0.732,��,3.9,��
2019/03/17,05:30,0.760,1.121,0.767,1.425,1.017,0.434,0.772,0.733,��,4.2,��
2019/03/17,05:40,0.759,1.120,0.769,1.425,1.017,0.436,0.772,0.733,��,4.6,��
2019/03/17,05:50,0.758,1.122,0.769,1.425,1.019,0.436,0.773,0.733,���쐼,4.3,��
2019/03/17,06:00,0.758,1.120,0.767,1.424,1.018,0.433,0.772,0.733,���쐼,4.7,��
2019/03/17,06:10,0.759,1.118,0.768,1.424,1.018,0.435,0.773,0.733,���쐼,4.1,��
2019/03/17,06:20,0.759,1.119,0.767,1.426,1.018,0.436,0.772,0.733,���쐼,3.7,��
2019/03/17,06:30,0.758,1.119,0.768,1.426,1.017,0.435,0.773,0.733,���쐼,3.2,��
2019/03/17,06:40,0.761,1.121,0.769,1.423,1.018,0.435,0.774,0.735,���쐼,3.8,��
2019/03/17,06:50,0.760,1.122,0.768,1.426,1.018,0.434,0.773,0.732,���쐼,3.6,��
2019/03/17,07:00,0.760,1.122,0.767,1.426,1.017,0.436,0.774,0.733,��,4.0,��
2019/03/17,07:10,0.759,1.119,0.767,1.425,1.016,0.433,0.773,0.735,��,3.7,��
2019/03/17,07:20,0.762,1.121,0.768,1.427,1.020,0.435,0.772,0.733,��,4.1,��
2019/03/17,07:30,0.760,1.121,0.769,1.426,1.021,0.434,0.773,0.733,��,3.4,��
2019/03/17,07:40,0.760,1.122,0.767,1.425,1.019,0.435,0.775,0.734,���쐼,2.8,��
2019/03/17,07:50,0.761,1.120,0.768,1.426,1.019,0.435,0.774,0.732,��,2.8,��
2019/03/17,08:00,0.762,1.120,0.769,1.425,1.020,0.434,0.774,0.734,�쐼,4.1,��
2019/03/17,08:10,0.760,1.122,0.770,1.428,1.020,0.436,0.776,0.733,���쐼,3.5,��
2019/03/17,08:20,0.762,1.121,0.769,1.427,1.019,0.435,0.775,0.734,���쐼,3.1,��
2019/03/17,08:30,0.761,1.123,0.769,1.426,1.017,0.434,0.774,0.735,���쐼,3.4,��
2019/03/17,08:40,0.763,1.123,0.771,1.428,1.020,0.438,0.775,0.734,�쐼,2.3,��
2019/03/17,08:50,0.763,1.122,0.770,1.428,1.022,0.436,0.775,0.735,���k��,2.5,��
2019/03/17,09:00,0.761,1.120,0.769,1.426,1.020,0.435,0.774,0.737,���쐼,1.2,��
2019/03/17,09:10,0.762,1.124,0.770,1.426,1.020,0.436,0.774,0.735,��,3.2,��
2019/03/17,09:20,0.764,1.122,0.771,1.425,1.020,0.437,0.774,0.736,���k��,2.3,��
2019/03/17,09:30,0.762,1.122,0.771,1.426,1.022,0.438,0.774,0.736,�k��,4.7,��
2019/03/17,09:40,0.762,1.121,0.770,1.428,1.024,0.437,0.773,0.734,���k��,3.4,��
2019/03/17,09:50,0.762,1.119,0.771,1.429,1.021,0.437,0.774,0.736,���k��,3.1,��
2019/03/17,10:00,0.762,1.121,0.772,1.428,1.021,0.437,0.774,0.735,�k��,5.2,��
2019/03/17,10:10,0.764,1.122,0.771,1.429,1.022,0.436,0.772,0.735,�k��,4.1,��
2019/03/17,10:20,0.764,1.122,0.772,1.427,1.024,0.436,0.772,0.735,��,0.6,��
2019/03/17,10:30,0.764,1.123,0.773,1.431,1.024,0.436,0.774,0.733,���쓌,4.0,��
2019/03/17,10:40,0.763,1.126,0.771,1.430,1.025,0.436,0.772,0.734,��,4.3,��
2019/03/17,10:50,0.765,1.125,0.772,1.430,1.024,0.437,0.773,0.732,��,4.6,��
2019/03/17,11:00,0.764,1.123,0.773,1.432,1.023,0.435,0.774,0.733,���쓌,4.1,��
2019/03/17,11:10,0.764,1.124,0.773,1.430,1.023,0.435,0.775,0.733,���쓌,4.0,��
2019/03/17,11:20,0.763,1.125,0.773,1.429,1.023,0.435,0.773,0.734,���쓌,4.4,��
2019/03/17,11:30,0.764,1.126,0.771,1.432,1.024,0.436,0.774,0.732,�쓌,4.7,��
2019/03/17,11:40,0.763,1.124,0.773,1.431,1.025,0.436,0.773,0.733,�쓌,3.7,��
2019/03/17,11:50,0.765,1.124,0.772,1.430,1.022,0.437,0.774,0.733,��쓌,4.8,��
2019/03/17,12:00,0.764,1.124,0.774,1.430,1.023,0.437,0.774,0.733,��쓌,5.0,��
2019/03/17,12:10,0.767,1.130,0.774,1.431,1.024,0.437,0.773,0.734,��쓌,5.6,��
2019/03/17,12:20,0.766,1.125,0.775,1.433,1.023,0.437,0.773,0.732,��쓌,5.0,��
2019/03/17,12:30,0.766,1.124,0.774,1.431,1.025,0.438,0.774,0.733,��쓌,5.1,��
2019/03/17,12:40,0.764,1.128,0.774,1.430,1.023,0.440,0.773,0.734,��쓌,5.0,��
2019/03/17,12:50,0.766,1.125,0.773,1.431,1.024,0.438,0.774,0.734,��쓌,5.3,��
2019/03/17,13:00,0.766,1.128,0.772,1.433,1.025,0.439,0.775,0.733,��쓌,5.0,��
2019/03/17,13:10,0.768,1.127,0.774,1.430,1.025,0.439,0.774,0.733,��쓌,3.8,��
2019/03/17,13:20,0.767,1.128,0.774,1.434,1.025,0.438,0.775,0.733,�쓌,4.6,��
2019/03/17,13:30,0.766,1.126,0.776,1.433,1.023,0.439,0.775,0.733,�쓌,4.4,��
2019/03/17,13:40,0.765,1.128,0.775,1.433,1.026,0.438,0.773,0.734,�쓌,4.5,��
2019/03/17,13:50,0.766,1.130,0.775,1.431,1.026,0.441,0.775,0.735,�쓌,5.0,��
2019/03/17,14:00,0.765,1.132,0.772,1.433,1.027,0.440,0.776,0.734,��쓌,3.9,��
2019/03/17,14:10,0.765,1.129,0.775,1.433,1.027,0.438,0.774,0.732,��쓌,5.5,��
2019/03/17,14:20,0.768,1.128,0.775,1.432,1.027,0.439,0.775,0.735,��쓌,4.9,��
2019/03/17,14:30,0.766,1.129,0.775,1.433,1.027,0.438,0.773,0.732,��쓌,5.4,��
2019/03/17,14:40,0.767,1.133,0.776,1.433,1.030,0.440,0.773,0.733,��쓌,6.0,��
2019/03/17,14:50,0.767,1.130,0.774,1.434,1.028,0.440,0.773,0.734,��쓌,5.4,��
2019/03/17,15:00,0.767,1.133,0.773,1.435,1.028,0.438,0.774,0.735,��쓌,5.9,��
2019/03/17,15:10,0.767,1.132,0.775,1.433,1.029,0.441,0.775,0.732,��쓌,5.6,��
2019/03/17,15:20,0.769,1.132,0.774,1.432,1.030,0.440,0.775,0.735,��,5.2,�L
2019/03/17,15:30,0.767,1.132,0.773,1.433,1.029,0.439,0.774,0.734,��쐼,2.2,��
2019/03/17,15:40,0.766,1.132,0.774,1.431,1.031,0.442,0.775,0.735,�쐼,2.9,��
2019/03/17,15:50,0.768,1.134,0.773,1.431,1.030,0.440,0.775,0.737,��,1.7,��
2019/03/17,16:00,0.768,1.132,0.775,1.432,1.030,0.439,0.774,0.739,��,2.0,��
2019/03/17,16:10,0.768,1.133,0.775,1.433,1.028,0.439,0.774,0.735,��쐼,1.2,��
2019/03/17,16:20,0.768,1.136,0.774,1.434,1.027,0.439,0.775,0.737,�쐼,1.7,��
2019/03/17,16:30,0.765,1.133,0.774,1.433,1.031,0.441,0.775,0.736,��쐼,3.5,��
2019/03/17,16:40,0.767,1.134,0.776,1.433,1.030,0.440,0.775,0.738,��쐼,3.2,��
2019/03/17,16:50,0.767,1.132,0.775,1.433,1.029,0.439,0.774,0.736,��쐼,3.2,��
2019/03/17,17:00,0.769,1.133,0.775,1.433,1.031,0.442,0.774,0.737,��쐼,3.1,��
2019/03/17,17:10,0.767,1.131,0.775,1.433,1.029,0.440,0.776,0.736,��쐼,3.5,��
2019/03/17,17:20,0.766,1.132,0.773,1.433,1.031,0.438,0.776,0.737,��쐼,3.6,��
2019/03/17,17:30,0.768,1.132,0.774,1.434,1.029,0.439,0.774,0.737,��쐼,4.4,��
2019/03/17,17:40,0.766,1.130,0.776,1.432,1.031,0.440,0.775,0.736,��쐼,4.1,��
2019/03/17,17:50,0.766,1.132,0.776,1.432,1.028,0.441,0.775,0.736,�쐼,3.9,��
2019/03/17,18:00,0.767,1.130,0.773,1.432,1.030,0.439,0.775,0.735,���쐼,4.0,��
2019/03/17,18:10,0.768,1.131,0.773,1.433,1.028,0.439,0.775,0.735,���쐼,4.0,��
2019/03/17,18:20,0.767,1.130,0.774,1.434,1.030,0.438,0.776,0.735,��,4.0,��
2019/03/17,18:30,0.765,1.131,0.772,1.431,1.029,0.438,0.777,0.734,���k��,4.8,��
2019/03/17,18:40,0.765,1.131,0.774,1.432,1.029,0.439,0.778,0.736,���k��,5.3,��
2019/03/17,18:50,0.766,1.129,0.774,1.431,1.027,0.438,0.774,0.735,�k��,6.0,��
2019/03/17,19:00,0.766,1.130,0.773,1.431,1.028,0.438,0.776,0.736,�k��,5.6,��
2019/03/17,19:10,0.766,1.131,0.774,1.432,1.029,0.439,0.776,0.735,�k��,5.6,��
2019/03/17,19:20,0.765,1.130,0.772,1.435,1.028,0.438,0.776,0.734,�k��,6.7,��
2019/03/17,19:30,0.765,1.132,0.773,1.433,1.027,0.438,0.775,0.735,�k��,6.4,��
2019/03/17,19:40,0.766,1.131,0.773,1.430,1.028,0.439,0.776,0.734,�k��,7.4,��
2019/03/17,19:50,0.765,1.129,0.773,1.430,1.028,0.437,0.775,0.736,�k��,6.7,��
2019/03/17,20:00,0.766,1.132,0.774,1.432,1.026,0.438,0.775,0.737,�k��,7.0,��
2019/03/17,20:10,0.764,1.129,0.772,1.431,1.028,0.437,0.777,0.735,�k��,7.8,��
2019/03/17,20:20,0.765,1.129,0.773,1.430,1.029,0.437,0.776,0.735,�k�k��,8.2,��
2019/03/17,20:30,0.764,1.130,0.775,1.431,1.029,0.439,0.777,0.734,�k�k��,7.8,��
2019/03/17,20:40,0.764,1.130,0.773,1.428,1.027,0.438,0.775,0.734,�k�k��,6.6,��
2019/03/17,20:50,0.764,1.132,0.774,1.431,1.027,0.438,0.775,0.735,�k,6.8,��
2019/03/17,21:00,0.764,1.129,0.772,1.432,1.026,0.438,0.775,0.736,�k,6.4,��
2019/03/17,21:10,0.764,1.128,0.771,1.431,1.028,0.436,0.776,0.735,�k,5.4,��
2019/03/17,21:20,0.765,1.127,0.773,1.430,1.028,0.436,0.776,0.735,�k�k��,5.9,��
2019/03/17,21:30,0.764,1.129,0.774,1.433,1.029,0.438,0.776,0.736,�k��,5.7,��
2019/03/17,21:40,0.764,1.128,0.772,1.434,1.028,0.437,0.775,0.735,�k��,6.0,��
2019/03/17,21:50,0.765,1.128,0.771,1.432,1.026,0.438,0.775,0.735,�k�k��,8.0,��
2019/03/17,22:00,0.763,1.129,0.773,1.432,1.029,0.435,0.776,0.736,�k�k��,7.0,��
2019/03/17,22:10,0.767,1.126,0.772,1.432,1.027,0.435,0.775,0.733,�k��,6.1,��
2019/03/17,22:20,0.764,1.128,0.772,1.430,1.028,0.436,0.774,0.735,�k�k��,5.6,��
2019/03/17,22:30,0.762,1.128,0.771,1.432,1.026,0.436,0.774,0.734,�k�k��,5.8,��
2019/03/17,22:40,0.763,1.127,0.773,1.432,1.027,0.436,0.775,0.734,�k�k��,6.7,��
2019/03/17,22:50,0.765,1.128,0.772,1.430,1.027,0.436,0.776,0.735,�k�k��,6.2,��
2019/03/17,23:00,0.764,1.131,0.770,1.432,1.029,0.436,0.775,0.734,�k�k��,6.4,��
2019/03/17,23:10,0.764,1.129,0.772,1.434,1.027,0.436,0.775,0.735,�k��,5.8,��
2019/03/17,23:20,0.763,1.128,0.772,1.432,1.028,0.437,0.774,0.733,�k�k��,6.3,��
2019/03/17,23:30,0.765,1.128,0.772,1.429,1.025,0.437,0.776,0.735,�k�k��,5.6,��
2019/03/17,23:40,0.762,1.126,0.772,1.434,1.026,0.437,0.776,0.735,�k�k��,5.2,��
2019/03/17,23:50,0.762,1.127,0.772,1.430,1.027,0.435,0.775,0.735,�k��,4.5,��
